STARLINK-1570, 46059

Orbit data source: Space-Track

STARLINK-1570, 46059 is a payload satellite owned by SpaceX/Seattle (US) in LEO that was launched on Fri, 07 Aug 2020 UTC via an FALCON 9 launch vehicle from the Air Force Eastern Test Range (AFETR). Payload-class satellites include a variety of spacecraft equipped with specific instruments for various scientific and technological missions. These include communications satellites like Starlink; space stations such as the ISS; scientific satellites like the Hubble; Earth observation satellites from companies like Planet Labs, Umbra, and HawkEye 360; GPS; miniature CubeSats for education and research; and military/defense satellites.

Loading next visibility...
Identifier
46059, 2020-055AJ
Orbit
LEO
Country
Flag of USUS
Related business
Manufacturer
SpaceX/Seattle
Mission
Operational Commercial Communications
Bus & Motor
STARLINK, Unknown motor
Mass
260 kg wet, ~248 kg dry
Launch date (UTC)
2020-08-07 (5 years ago)
Launch vehicle
FALCON 9
Launch site
Air Force Eastern Test Range (AFETR)
Object type
Payload
Rocket body
Debris
Shape & HBR
Box + 1 Pan, 4.4 m
Radar Cross Section
13.562 m², Large (>1 m²)

Expand to show TLE details & history
Last TLE update: 20 hours ago

TLE from 20 hours ago
0 STARLINK-1570
1 46059U 20055AJ  25261.02146367 -.00000220  00000-0  41528-5 0  9991
2 46059  53.0557 171.7563 0001426 103.6715 256.4433 15.06403463282963
Epoch: 2025-09-18T00:30Z
TLE epoch observation values (Epoch: 2025-09-18T00:30:54.461Z)
Latitude
0.00001°
Longitude
166.84035°
Altitude
548.312 km
Speed
7.589 km/s
True Right ascension
11h 27m 01s
True Declination
0° 00' 00"
Sunlit
Object was in daylight at epoch
Visualization orbit readout
Latitude
Unknown
Longitude
Unknown
Altitude
Unknown
Speed
Unknown
Apparent Right ascension
Unknown
Apparent Declination
Unknown
Sunlit
N/A
Visualization observer readout
Local Sidereal Time
13:03:03
Azimuth
Unknown
Elevation
Unknown
Doppler factor
Unknown
Orbital elements
Apogee altitude
548.459 km
Perigee altitude
546.484 km
Semi-major axis
6,925.608 km
Eccentricity
0.00014
Inclination
53.0557°
RAAN
171.7563°
Arg. of periapsis
103.6715°
True anomaly
256.42742°
Mean anomaly
256.4433°
Eccentric anomaly
256.43536°
Mean motion
3.76579 °/min
Orbital period
95.6 mins
BSTAR
0.0000041528
Loading maneuver chart data...
Computing Atmospheric mass density...
Loading historical data...
Loading historical data...
Loading historical data...
Loading historical data...
Loading historical data...
Loading historical data...
Loading historical data...

Documentation

Showing up to 5 results
|